datetime,ave SJC release
2017-01-01,4.6577
2017-01-02,4.6577
2017-01-03,4.6577
2017-01-04,4.6577
2017-01-05,4.6577
2017-01-06,4.6577
2017-01-07,4.6577
2017-01-08,4.6577
2017-01-09,4.6577
2017-01-10,4.6577
2017-01-11,7.75953
2017-01-12,7.75953
2017-01-13,7.75953
2017-01-14,6.20366
2017-01-15,6.20366
2017-01-16,6.20366
2017-01-17,6.20366
2017-01-18,6.20366
2017-01-19,6.20366
2017-01-20,6.20366
2017-01-21,3.10183
2017-01-22,3.10183
2017-01-23,3.10183
2017-01-24,4.6577
2017-01-25,3.10183
2017-01-26,3.10183
2017-01-27,3.10183
2017-01-28,4.6577
2017-01-29,4.6577
2017-01-30,4.6577
2017-01-31,4.6577
2017-02-01,4.6577
2017-02-02,5.42077
2017-02-03,5.42077
2017-02-04,5.42077
2017-02-05,5.42077
2017-02-06,5.42077
2017-02-07,5.42077
2017-02-08,5.42077
2017-02-09,5.42077
2017-02-10,6.20366
2017-02-11,6.20366
2017-02-12,6.20366
2017-02-13,6.20366
2017-02-14,6.20366
2017-02-15,6.97664
2017-02-16,6.97664
2017-02-17,6.97664
2017-02-18,6.97664
2017-02-19,6.97664
2017-02-20,6.97664
2017-02-21,6.97664
2017-02-22,6.97664
2017-02-23,6.97664
2017-02-24,6.97664
2017-02-25,6.97664
2017-02-26,6.97664
2017-02-27,6.97664
2017-02-28,6.97664
2017-03-01,4.6577
2017-03-02,6.20366
2017-03-03,6.20366
2017-03-04,6.97664
2017-03-05,6.97664
2017-03-06,6.97664
2017-03-07,6.97664
2017-03-08,6.97664
2017-03-09,6.97664
2017-03-10,6.97664
2017-03-11,6.20366
2017-03-12,6.20366
2017-03-13,6.20366
2017-03-14,6.20366
2017-03-15,7.75953
2017-03-16,7.75953
2017-03-17,7.75953
2017-03-18,7.75953
2017-03-19,10.86136
2017-03-20,10.86136
2017-03-21,10.86136
2017-03-22,13.1803
2017-03-23,13.1803
2017-03-24,13.1803
2017-03-25,15.51906
2017-03-26,15.51906
2017-03-27,15.51906
2017-03-28,0.0
2017-03-29,0.0
2017-03-30,9.30549
2017-03-31,9.30549
2017-04-01,4.6577
2017-04-02,9.30549
2017-04-03,9.30549
2017-04-04,9.30549
2017-04-05,7.75953
2017-04-06,7.75953
2017-04-07,7.75953
2017-04-08,6.98655
2017-04-09,6.98655
2017-04-10,6.98655
2017-04-11,6.98655
2017-04-12,6.98655
2017-04-13,6.98655
2017-04-14,7.75953
2017-04-15,0.0
2017-04-16,0.0
2017-04-17,0.0
2017-04-18,0.0
2017-04-19,0.0
2017-04-20,0.0
2017-04-21,0.0
2017-04-22,0.0
2017-04-23,0.0
2017-04-24,0.0
2017-04-25,0.0
2017-04-26,0.0
2017-04-27,0.0
2017-04-28,0.0
2017-04-29,0.0
2017-04-30,0.0
2017-05-01,0.0
2017-05-02,0.0
2017-05-03,0.0
2017-05-04,0.0
2017-05-05,0.0
2017-05-06,0.0
2017-05-07,0.0
2017-05-08,0.0
2017-05-09,0.0
2017-05-10,0.0
2017-05-11,0.0
2017-05-12,0.0
2017-05-13,0.0
2017-05-14,0.0
2017-05-15,0.0
2017-05-16,0.0
2017-05-17,0.0
2017-05-18,0.0
2017-05-19,0.0
2017-05-20,0.0
2017-05-21,0.0
2017-05-22,0.0
2017-05-23,0.0
2017-05-24,0.0
2017-05-25,0.0
2017-05-26,0.0
2017-05-27,0.0
2017-05-28,0.0
2017-05-29,0.0
2017-05-30,0.0
2017-05-31,4.6577
2017-06-01,4.6577
2017-06-02,10.86136
2017-06-03,10.86136
2017-06-04,10.86136
2017-06-05,10.86136
2017-06-06,10.86136
2017-06-07,9.30549
2017-06-08,9.30549
2017-06-09,9.30549
2017-06-10,9.30549
2017-06-11,9.30549
2017-06-12,9.30549
2017-06-13,9.30549
2017-06-14,9.30549
2017-06-15,9.30549
2017-06-16,9.30549
2017-06-17,9.30549
2017-06-18,9.30549
2017-06-19,9.30549
2017-06-20,9.30549
2017-06-21,9.30549
2017-06-22,13.96319
2017-06-23,13.96319
2017-06-24,12.40732
2017-06-25,12.40732
2017-06-26,12.40732
2017-06-27,12.40732
2017-06-28,8.5226
2017-06-29,8.5226
2017-06-30,8.5226
2017-07-01,4.6577
2017-07-02,12.40732
2017-07-03,12.40732
2017-07-04,12.40732
2017-07-05,12.40732
2017-07-06,7.75953
2017-07-07,7.75953
2017-07-08,12.40732
2017-07-09,12.40732
2017-07-10,12.40732
2017-07-11,12.40732
2017-07-12,12.40732
2017-07-13,12.40732
2017-07-14,13.96319
2017-07-15,13.96319
2017-07-16,13.96319
2017-07-17,12.40732
2017-07-18,12.40732
2017-07-19,6.20366
2017-07-20,6.20366
2017-07-21,7.75953
2017-07-22,7.75953
2017-07-23,12.40732
2017-07-24,12.40732
2017-07-25,12.40732
2017-07-26,0.0
2017-07-27,0.0
2017-07-28,10.86136
2017-07-29,4.6577
2017-07-30,4.6577
2017-07-31,4.6577
2017-08-01,4.6577
2017-08-02,10.86136
2017-08-03,6.20366
2017-08-04,6.20366
2017-08-05,6.20366
2017-08-06,6.20366
2017-08-07,6.20366
2017-08-08,6.20366
2017-08-09,9.30549
2017-08-10,9.30549
2017-08-11,7.75953
2017-08-12,9.30549
2017-08-13,9.30549
2017-08-14,9.30549
2017-08-15,9.30549
2017-08-16,7.75953
2017-08-17,7.75953
2017-08-18,11.62443
2017-08-19,11.62443
2017-08-20,11.62443
2017-08-21,11.62443
2017-08-22,7.75953
2017-08-23,7.75953
2017-08-24,9.30549
2017-08-25,9.30549
2017-08-26,9.30549
2017-08-27,9.30549
2017-08-28,9.30549
2017-08-29,9.30549
2017-08-30,9.30549
2017-08-31,10.86136
2017-09-01,4.6577
2017-09-02,10.86136
2017-09-03,10.86136
2017-09-04,10.86136
2017-09-05,10.86136
2017-09-06,6.20366
2017-09-07,6.20366
2017-09-08,6.20366
2017-09-09,6.20366
2017-09-10,6.20366
2017-09-11,6.20366
2017-09-12,6.20366
2017-09-13,6.20366
2017-09-14,6.20366
2017-09-15,6.20366
2017-09-16,6.20366
2017-09-17,6.20366
2017-09-18,6.20366
2017-09-19,6.20366
2017-09-20,6.20366
2017-09-21,6.20366
2017-09-22,6.20366
2017-09-23,6.20366
2017-09-24,6.20366
2017-09-25,6.20366
2017-09-26,6.20366
2017-09-27,3.10183
2017-09-28,3.10183
2017-09-29,9.30549
2017-09-30,9.30549
2017-10-01,4.6577
2017-10-02,7.75953
2017-10-03,7.75953
2017-10-04,7.75953
2017-10-05,3.10183
2017-10-06,3.10183
2017-10-07,6.20366
2017-10-08,6.20366
2017-10-09,6.20366
2017-10-10,6.20366
2017-10-11,6.20366
2017-10-12,6.20366
2017-10-13,6.20366
2017-10-14,6.20366
2017-10-15,6.20366
2017-10-16,6.20366
2017-10-17,6.20366
2017-10-18,6.20366
2017-10-19,4.6577
2017-10-20,3.10183
2017-10-21,3.10183
2017-10-22,3.10183
2017-10-23,3.10183
2017-10-24,3.10183
2017-10-25,3.10183
2017-10-26,3.10183
2017-10-27,4.6577
2017-10-28,4.6577
2017-10-29,4.6577
2017-10-30,4.6577
2017-10-31,4.6577
2017-11-01,4.6577
2017-11-02,4.6577
2017-11-03,4.6577
2017-11-04,4.6577
2017-11-05,4.6577
2017-11-06,4.6577
2017-11-07,4.6577
2017-11-08,1.55587
2017-11-09,1.55587
2017-11-10,2.31894
2017-11-11,2.31894
2017-11-12,2.31894
2017-11-13,2.31894
2017-11-14,2.31894
2017-11-15,2.31894
2017-11-16,2.31894
2017-11-17,2.31894
2017-11-18,2.31894
2017-11-19,2.31894
2017-11-20,2.31894
2017-11-21,2.31894
2017-11-22,2.31894
2017-11-23,4.6577
2017-11-24,4.6577
2017-11-25,4.6577
2017-11-26,4.6577
2017-11-27,4.6577
2017-11-28,4.6577
2017-11-29,15.51906
2017-11-30,15.51906
2017-12-01,4.6577
2017-12-02,4.6577
2017-12-03,4.6577
2017-12-04,4.6577
2017-12-05,4.6577
2017-12-06,1.55587
2017-12-07,3.10183
2017-12-08,4.6577
2017-12-09,4.6577
2017-12-10,4.6577
2017-12-11,4.6577
2017-12-12,4.6577
2017-12-13,4.6577
2017-12-14,4.6577
2017-12-15,5.42077
2017-12-16,5.42077
2017-12-17,5.42077
2017-12-18,5.42077
2017-12-19,5.42077
2017-12-20,4.6577
2017-12-21,4.6577
2017-12-22,4.6577
2017-12-23,4.6577
2017-12-24,4.6577
2017-12-25,4.6577
2017-12-26,4.6577
2017-12-27,4.6577
2017-12-28,4.6577
2017-12-29,4.6577
2017-12-30,4.6577
2017-12-31,4.6577
2018-01-01,4.6577
2018-01-02,4.6577
2018-01-03,4.6577
2018-01-04,4.6577
2018-01-05,4.6577
2018-01-06,5.42077
2018-01-07,5.42077
2018-01-08,5.42077
2018-01-09,6.20366
2018-01-10,6.20366
2018-01-11,6.20366
2018-01-12,6.20366
2018-01-13,6.20366
2018-01-14,6.97664
2018-01-15,6.97664
2018-01-16,6.97664
2018-01-17,5.42077
2018-01-18,5.42077
2018-01-19,3.10183
2018-01-20,3.10183
2018-01-21,5.42077
2018-01-22,5.42077
2018-01-23,5.42077
2018-01-24,5.42077
2018-01-25,5.42077
2018-01-26,5.42077
2018-01-27,5.42077
2018-01-28,1.55587
2018-01-29,1.55587
2018-01-30,1.55587
2018-01-31,1.55587
2018-02-01,1.55587
2018-02-02,5.42077
2018-02-03,5.42077
2018-02-04,5.42077
2018-02-05,5.42077
2018-02-06,5.42077
2018-02-07,5.42077
2018-02-08,5.42077
2018-02-09,5.42077
2018-02-10,5.42077
2018-02-11,5.42077
2018-02-12,5.42077
2018-02-13,5.42077
2018-02-14,5.42077
2018-02-15,5.42077
2018-02-16,5.42077
2018-02-17,5.42077
2018-02-18,5.42077
2018-02-19,5.42077
2018-02-20,5.42077
2018-02-21,5.42077
2018-02-22,5.42077
2018-02-23,5.42077
2018-02-24,5.42077
2018-02-25,5.42077
2018-02-26,1.55587
2018-02-27,1.55587
2018-02-28,1.55587
2018-03-01,1.55587
2018-03-02,1.55587
2018-03-03,1.55587
2018-03-04,1.55587
2018-03-05,1.55587
2018-03-06,1.55587
2018-03-07,1.55587
2018-03-08,1.55587
2018-03-09,1.55587
2018-03-10,1.55587
2018-03-11,1.55587
2018-03-12,1.55587
2018-03-13,1.55587
2018-03-14,1.55587
2018-03-15,1.55587
2018-03-16,1.55587
2018-03-17,1.55587
2018-03-18,1.55587
2018-03-19,1.55587
2018-03-20,1.55587
2018-03-21,1.55587
2018-03-22,1.55587
2018-03-23,1.55587
2018-03-24,1.55587
2018-03-25,1.55587
2018-03-26,1.55587
2018-03-27,1.55587
2018-03-28,1.55587
2018-03-29,1.55587
2018-03-30,1.55587
2018-03-31,1.55587
2018-04-01,1.55587
2018-04-02,1.55587
2018-04-03,1.55587
2018-04-04,1.55587
2018-04-05,1.55587
2018-04-06,1.55587
2018-04-07,1.55587
2018-04-08,1.55587
2018-04-09,1.55587
2018-04-10,1.55587
2018-04-11,1.55587
2018-04-12,1.55587
2018-04-13,1.55587
2018-04-14,1.55587
2018-04-15,1.55587
2018-04-16,1.55587
2018-04-17,1.55587
2018-04-18,1.55587
2018-04-19,1.55587
2018-04-20,1.55587
2018-04-21,1.55587
2018-04-22,1.55587
2018-04-23,1.55587
2018-04-24,1.55587
2018-04-25,1.55587
2018-04-26,1.55587
2018-04-27,1.55587
2018-04-28,1.55587
2018-04-29,1.55587
2018-04-30,1.55587
2018-05-01,1.55587
2018-05-02,1.55587
2018-05-03,1.55587
2018-05-04,1.55587
2018-05-05,1.55587
2018-05-06,1.55587
2018-05-07,1.55587
2018-05-08,1.55587
2018-05-09,3.09192
2018-05-10,4.62797
2018-05-11,6.16402
2018-05-12,7.75953
2018-05-13,13.96319
2018-05-14,13.96319
2018-05-15,13.96319
2018-05-16,13.96319
2018-05-17,13.96319
2018-05-18,13.96319
2018-05-19,13.96319
2018-05-20,13.96319
2018-05-21,13.96319
2018-05-22,13.96319
2018-05-23,13.96319
2018-05-24,13.96319
2018-05-25,13.96319
2018-05-26,13.96319
2018-05-27,13.96319
2018-05-28,13.96319
2018-05-29,13.96319
2018-05-30,13.96319
2018-05-31,13.96319
2018-06-01,13.96319
2018-06-02,13.96319
2018-06-03,13.96319
2018-06-04,13.96319
2018-06-05,13.96319
2018-06-06,13.96319
2018-06-07,13.96319
2018-06-08,13.96319
2018-06-09,13.96319
2018-06-10,13.96319
2018-06-11,13.96319
2018-06-12,13.96319
2018-06-13,13.96319
2018-06-14,13.96319
2018-06-15,13.96319
2018-06-16,13.96319
2018-06-17,13.96319
2018-06-18,13.96319
2018-06-19,13.96319
2018-06-20,13.96319
2018-06-21,13.96319
2018-06-22,13.96319
2018-06-23,13.96319
2018-06-24,13.96319
2018-06-25,13.96319
2018-06-26,13.96319
2018-06-27,13.96319
2018-06-28,13.96319
2018-06-29,13.96319
2018-06-30,13.96319
2018-07-01,13.96319
2018-07-02,13.96319
2018-07-03,13.96319
2018-07-04,13.96319
2018-07-05,13.96319
2018-07-06,13.96319
2018-07-07,13.96319
2018-07-08,13.96319
2018-07-09,13.96319
2018-07-10,13.96319
2018-07-11,13.96319
2018-07-12,13.96319
2018-07-13,13.96319
2018-07-14,17.06502
2018-07-15,17.06502
2018-07-16,17.06502
2018-07-17,17.06502
2018-07-18,17.06502
2018-07-19,17.06502
2018-07-20,17.06502
2018-07-21,17.06502
2018-07-22,17.06502
2018-07-23,17.06502
2018-07-24,17.06502
2018-07-25,0.0
2018-07-26,0.0
2018-07-27,7.75953
2018-07-28,7.75953
2018-07-29,7.75953
2018-07-30,7.75953
2018-07-31,7.75953
2018-08-01,7.75953
2018-08-02,13.96319
2018-08-03,13.96319
2018-08-04,13.96319
2018-08-05,13.96319
2018-08-06,13.96319
2018-08-07,13.96319
2018-08-08,13.96319
2018-08-09,13.96319
2018-08-10,13.96319
2018-08-11,13.96319
2018-08-12,13.96319
2018-08-13,9.30549
2018-08-14,9.30549
2018-08-15,9.30549
2018-08-16,9.30549
2018-08-17,9.30549
2018-08-18,9.30549
2018-08-19,9.30549
2018-08-20,9.30549
2018-08-21,9.30549
2018-08-22,9.30549
2018-08-23,9.30549
2018-08-24,9.30549
2018-08-25,9.30549
2018-08-26,9.30549
2018-08-27,9.30549
2018-08-28,9.30549
2018-08-29,9.30549
2018-08-30,9.30549
2018-08-31,9.30549
2018-09-01,9.30549
2018-09-02,11.64425
2018-09-03,11.64425
2018-09-04,11.64425
2018-09-05,11.64425
2018-09-06,11.64425
2018-09-07,11.64425
2018-09-08,11.64425
2018-09-09,11.64425
2018-09-10,11.64425
2018-09-11,11.64425
2018-09-12,11.64425
2018-09-13,11.64425
2018-09-14,11.64425
2018-09-15,11.64425
2018-09-16,11.64425
2018-09-17,11.64425
2018-09-18,11.64425
2018-09-19,11.64425
2018-09-20,11.64425
2018-09-21,11.64425
2018-09-22,11.64425
2018-09-23,11.64425
2018-09-24,11.64425
2018-09-25,11.64425
2018-09-26,11.64425
2018-09-27,11.64425
2018-09-28,11.64425
2018-09-29,11.64425
2018-09-30,11.64425
2018-10-01,11.64425
2018-10-02,11.64425
2018-10-03,11.64425
2018-10-04,11.64425
2018-10-05,11.64425
2018-10-06,11.64425
2018-10-07,11.64425
2018-10-08,11.64425
2018-10-09,11.64425
2018-10-10,11.64425
2018-10-11,11.64425
2018-10-12,11.64425
2018-10-13,11.64425
2018-10-14,11.64425
2018-10-15,11.64425
2018-10-16,11.64425
2018-10-17,11.64425
2018-10-18,11.64425
2018-10-19,6.91718
2018-10-20,6.91718
2018-10-21,6.91718
2018-10-22,6.91718
2018-10-23,6.91718
2018-10-24,6.91718
2018-10-25,6.91718
2018-10-26,6.91718
2018-10-27,6.91718
2018-10-28,6.91718
2018-10-29,6.91718
2018-10-30,6.91718
2018-10-31,6.91718
2018-11-01,6.91718
2018-11-02,6.91718
2018-11-03,6.91718
2018-11-04,6.1442
2018-11-05,6.1442
2018-11-06,6.1442
2018-11-07,6.1442
2018-11-08,6.1442
2018-11-09,6.1442
2018-11-10,6.1442
2018-11-11,6.1442
2018-11-12,6.1442
2018-11-13,6.1442
2018-11-14,6.1442
2018-11-15,0.0
2018-11-16,0.0
2018-11-17,0.0
2018-11-18,4.60815
2018-11-19,4.60815
2018-11-20,4.60815
2018-11-21,4.60815
2018-11-22,4.60815
2018-11-23,4.60815
2018-11-24,4.60815
2018-11-25,4.60815
2018-11-26,6.1442
2018-11-27,6.1442
2018-11-28,6.1442
2018-11-29,6.1442
2018-11-30,6.1442
2018-12-01,6.1442
2018-12-02,6.1442
2018-12-03,6.1442
2018-12-04,6.1442
2018-12-05,6.1442
2018-12-06,6.45141
2018-12-07,6.45141
2018-12-08,6.45141
2018-12-09,6.45141
2018-12-10,6.45141
2018-12-11,6.45141
2018-12-12,6.45141
2018-12-13,6.45141
2018-12-14,6.45141
2018-12-15,6.45141
2018-12-16,6.1442
2018-12-17,6.1442
2018-12-18,6.1442
2018-12-19,6.1442
2018-12-20,6.1442
2018-12-21,6.1442
2018-12-22,6.45141
2018-12-23,6.45141
2018-12-24,6.45141
2018-12-25,6.45141
2018-12-26,6.45141
2018-12-27,6.45141
2018-12-28,1.53605
2018-12-29,3.0721
2018-12-30,3.0721
2018-12-31,3.0721
2019-01-01,3.07
2019-01-02,3.0721
2019-01-03,3.0721
2019-01-04,3.0721
2019-01-05,4.60815
2019-01-06,4.60815
2019-01-07,4.60815
2019-01-08,4.60815
2019-01-09,6.1442
2019-01-10,6.1442
2019-01-11,6.1442
2019-01-12,6.1442
2019-01-13,6.1442
2019-01-14,6.1442
2019-01-15,6.1442
2019-01-16,6.1442
2019-01-17,3.84508
2019-01-18,3.84508
2019-01-19,3.84508
2019-01-20,3.84508
2019-01-21,3.84508
2019-01-22,3.84508
2019-01-23,3.84508
2019-01-24,3.84508
2019-01-25,6.1442
2019-01-26,6.1442
2019-01-27,6.1442
2019-01-28,4.60815
2019-01-29,3.0721
2019-01-30,0.0
2019-01-31,6.1442
2019-02-01,6.1442
2019-02-02,6.1442
2019-02-03,6.1442
2019-02-04,6.1442
2019-02-05,5.38113
2019-02-06,5.38113
2019-02-07,5.38113
2019-02-08,5.38113
2019-02-09,5.38113
2019-02-10,5.38113
2019-02-11,5.38113
2019-02-12,5.38113
2019-02-13,1.53605
2019-02-14,1.53605
2019-02-15,3.0721
2019-02-16,3.0721
2019-02-17,3.0721
2019-02-18,3.0721
2019-02-19,1.53605
2019-02-20,1.53605
2019-02-21,1.53605
2019-02-22,1.53605
2019-02-23,1.53605
2019-02-24,1.53605
2019-02-25,1.53605
2019-02-26,1.53605
2019-02-27,1.53605
2019-02-28,1.53605
2019-03-01,1.53605
2019-03-02,1.53605
2019-03-03,1.53605
2019-03-04,1.53605
2019-03-05,1.53605
2019-03-06,1.53605
2019-03-07,1.53605
2019-03-08,1.53605
2019-03-09,1.53605
2019-03-10,1.53605
2019-03-11,1.53605
2019-03-12,1.53605
2019-03-13,1.53605
2019-03-14,0.0
2019-03-15,0.0
2019-03-16,0.0
2019-03-17,0.0
2019-03-18,0.0
2019-03-19,0.0
2019-03-20,0.0
2019-03-21,0.0
2019-03-22,0.0
2019-03-23,0.0
2019-03-24,0.0
2019-03-25,0.0
2019-03-26,0.0
2019-03-27,0.0
2019-03-28,0.0
2019-03-29,0.0
2019-03-30,0.0
2019-03-31,0.0
2019-04-01,0.0
2019-04-02,0.0
2019-04-03,0.0
2019-04-04,0.0
2019-04-05,1.53605
2019-04-06,1.53605
2019-04-07,1.53605
2019-04-08,1.53605
2019-04-09,0.0
2019-04-10,0.0
2019-04-11,0.0
2019-04-12,0.0
2019-04-13,0.0
2019-04-14,0.0
2019-04-15,0.0
2019-04-16,0.0
2019-04-17,0.0
2019-04-18,0.0
2019-04-19,0.0
2019-04-20,0.0
2019-04-21,0.0
2019-04-22,0.0
2019-04-23,0.0
2019-04-24,0.0
2019-04-25,0.0
2019-04-26,0.0
2019-04-27,0.0
2019-04-28,0.0
2019-04-29,0.0
2019-04-30,0.0
2019-05-01,0.0
2019-05-02,0.0
2019-05-03,0.0
2019-05-04,0.0
2019-05-05,0.0
2019-05-06,0.0
2019-05-07,0.0
2019-05-08,0.0
2019-05-09,0.0
2019-05-10,0.0
2019-05-11,0.0
2019-05-12,0.0
2019-05-13,0.0
2019-05-14,0.0
2019-05-15,0.0
2019-05-16,0.0
2019-05-17,0.0
2019-05-18,0.0
2019-05-19,0.0
2019-05-20,0.0
2019-05-21,0.0
2019-05-22,0.0
2019-05-23,0.0
2019-05-24,0.0
2019-05-25,0.0
2019-05-26,0.0
2019-05-27,0.0
2019-05-28,0.0
2019-05-29,0.0
2019-05-30,0.0
2019-05-31,0.0
2019-06-01,0.0
2019-06-02,0.0
2019-06-03,0.0
2019-06-04,0.0
2019-06-05,0.0
2019-06-06,0.0
2019-06-07,0.0
2019-06-08,0.0
2019-06-09,0.0
2019-06-10,0.0
2019-06-11,0.0
2019-06-12,0.0
2019-06-13,0.0
2019-06-14,0.0
2019-06-15,0.0
2019-06-16,0.0
2019-06-17,0.0
2019-06-18,0.0
2019-06-19,0.0
2019-06-20,0.0
2019-06-21,0.0
2019-06-22,0.0
2019-06-23,0.0
2019-06-24,0.0
2019-06-25,0.0
2019-06-26,0.0
2019-06-27,0.0
2019-06-28,0.0
2019-06-29,0.0
2019-06-30,0.0
2019-07-01,0.0
2019-07-02,10.08838
2019-07-03,10.08838
2019-07-04,10.08838
2019-07-05,12.40732
2019-07-06,12.40732
2019-07-07,12.40732
2019-07-08,12.40732
2019-07-09,12.40732
2019-07-10,12.40732
2019-07-11,12.40732
2019-07-12,12.40732
2019-07-13,12.40732
2019-07-14,12.40732
2019-07-15,12.40732
2019-07-16,12.40732
2019-07-17,12.40732
2019-07-18,12.40732
2019-07-19,12.40732
2019-07-20,12.40732
2019-07-21,12.40732
2019-07-22,12.40732
2019-07-23,12.40732
2019-07-24,12.40732
2019-07-25,9.30549
2019-07-26,9.30549
2019-07-27,9.30549
2019-07-28,0.0
2019-07-29,0.0
2019-07-30,9.30549
2019-07-31,9.30549
2019-08-01,9.30549
2019-08-02,9.30549
2019-08-03,9.30549
2019-08-04,9.30549
2019-08-05,9.30549
2019-08-06,9.30549
2019-08-07,6.20366
2019-08-08,6.20366
2019-08-09,6.20366
2019-08-10,6.20366
2019-08-11,6.20366
2019-08-12,6.20366
2019-08-13,6.20366
2019-08-14,6.20366
2019-08-15,6.20366
2019-08-16,6.20366
2019-08-17,6.20366
2019-08-18,6.20366
2019-08-19,6.20366
2019-08-20,6.20366
2019-08-21,6.20366
2019-08-22,6.20366
2019-08-23,6.20366
2019-08-24,6.20366
2019-08-25,4.60815
2019-08-26,4.60815
2019-08-27,4.60815
2019-08-28,4.60815
2019-08-29,4.60815
2019-08-30,4.60815
2019-08-31,4.60815
2019-09-01,4.60815
2019-09-02,4.60815
2019-09-03,4.60815
2019-09-04,4.60815
2019-09-05,4.60815
2019-09-06,4.60815
2019-09-07,4.60815
2019-09-08,4.60815
2019-09-09,4.60815
2019-09-10,4.60815
2019-09-11,4.60815
2019-09-12,4.60815
2019-09-13,4.60815
2019-09-14,4.60815
2019-09-15,4.60815
2019-09-16,4.60815
2019-09-17,4.60815
2019-09-18,4.60815
2019-09-19,7.75953
2019-09-20,7.75953
2019-09-21,7.75953
2019-09-22,7.75953
2019-09-23,7.75953
2019-09-24,7.75953
2019-09-25,7.75953
2019-09-26,7.75953
2019-09-27,7.75953
2019-09-28,9.29558
2019-09-29,9.29558
2019-09-30,9.29558
2019-10-01,9.29558
2019-10-02,9.29558
2019-10-03,9.29558
2019-10-04,9.29558
2019-10-05,9.29558
2019-10-06,9.29558
2019-10-07,9.29558
2019-10-08,9.29558
2019-10-09,9.29558
2019-10-10,9.29558
2019-10-11,9.29558
2019-10-12,9.29558
2019-10-13,12.39741
2019-10-14,12.39741
2019-10-15,12.39741
2019-10-16,12.39741
2019-10-17,9.29558
2019-10-18,9.29558
2019-10-19,9.29558
2019-10-20,7.74962
2019-10-21,7.74962
2019-10-22,7.74962
2019-10-23,7.74962
2019-10-24,0.0
2019-10-25,0.0
2019-10-26,6.20366
2019-10-27,6.20366
2019-10-28,6.20366
2019-10-29,6.20366
2019-10-30,6.20366
2019-10-31,6.20366
2019-11-01,6.20366
2019-11-02,4.64779
2019-11-03,4.64779
2019-11-04,4.64779
2019-11-05,4.64779
2019-11-06,4.64779
2019-11-07,4.64779
2019-11-08,4.64779
2019-11-09,4.64779
2019-11-10,4.64779
2019-11-11,4.64779
2019-11-12,4.64779
2019-11-13,4.64779
2019-11-14,4.64779
2019-11-15,4.64779
2019-11-16,4.64779
2019-11-17,4.64779
2019-11-18,4.64779
2019-11-19,4.64779
2019-11-20,4.64779
2019-11-21,4.64779
2019-11-22,4.64779
2019-11-23,4.64779
2019-11-24,4.64779
2019-11-25,4.64779
2019-11-26,4.64779
2019-11-27,4.64779
2019-11-28,4.64779
2019-11-29,4.64779
2019-11-30,4.64779
2019-12-01,4.64779
2019-12-02,4.64779
2019-12-03,4.64779
2019-12-04,3.10183
2019-12-05,3.10183
2019-12-06,5.42077
2019-12-07,5.42077
2019-12-08,5.42077
2019-12-09,5.42077
2019-12-10,5.42077
2019-12-11,5.42077
2019-12-12,5.42077
2019-12-13,1.54596
2019-12-14,1.54596
2019-12-15,1.54596
2019-12-16,1.54596
2019-12-17,1.54596
2019-12-18,4.64779
2019-12-19,4.64779
2019-12-20,4.64779
2019-12-21,4.64779
2019-12-22,6.20366
2019-12-23,6.20366
2019-12-24,6.20366
2019-12-25,6.20366
2019-12-26,6.20366
2019-12-27,6.20366
2019-12-28,6.20366
2019-12-29,6.20366
2019-12-30,6.20366
2019-12-31,6.20366
2020-01-01,6.20366
2020-01-02,6.20366
2020-01-03,6.20366
2020-01-04,6.20366
2020-01-05,6.20366
2020-01-06,6.20366
2020-01-07,6.20366
2020-01-08,6.20366
2020-01-09,6.20366
2020-01-10,6.20366
2020-01-11,6.20366
2020-01-12,4.6577
2020-01-13,4.6577
2020-01-14,4.6577
2020-01-15,4.6577
2020-01-16,4.6577
2020-01-17,4.6577
2020-01-18,4.6577
2020-01-19,4.6577
2020-01-20,4.6577
2020-01-21,4.6577
2020-01-22,4.6577
2020-01-23,3.10183
2020-01-24,3.10183
2020-01-25,3.10183
2020-01-26,3.10183
2020-01-27,3.10183
2020-01-28,3.10183
2020-01-29,3.10183
2020-01-30,3.10183
2020-01-31,3.10183
2020-02-01,3.10183
2020-02-02,3.10183
2020-02-03,3.10183
2020-02-04,3.10183
2020-02-05,3.10183
2020-02-06,3.10183
2020-02-07,3.10183
2020-02-08,3.10183
2020-02-09,3.10183
2020-02-10,3.10183
2020-02-11,3.10183
2020-02-12,3.10183
2020-02-13,3.10183
2020-02-14,3.10183
2020-02-15,3.10183
2020-02-16,3.10183
2020-02-17,3.10183
2020-02-18,3.10183
2020-02-19,3.10183
2020-02-20,3.10183
2020-02-21,3.10183
2020-02-22,3.10183
2020-02-23,3.10183
2020-02-24,3.10183
2020-02-25,3.10183
2020-02-26,3.10183
2020-02-27,3.10183
2020-02-28,3.10183
2020-02-29,3.10183
2020-03-01,3.10183
2020-03-02,3.10183
2020-03-03,3.10183
2020-03-04,3.10183
2020-03-05,3.10183
2020-03-06,3.10183
2020-03-07,3.10183
2020-03-08,3.10183
2020-03-09,3.10183
2020-03-10,3.10183
2020-03-11,3.10183
2020-03-12,3.10183
2020-03-13,3.10183
2020-03-14,3.10183
2020-03-15,3.10183
2020-03-16,3.10183
2020-03-17,3.10183
2020-03-18,3.10183
2020-03-19,3.10183
2020-03-20,3.10183
2020-03-21,3.10183
2020-03-22,3.10183
2020-03-23,3.10183
2020-03-24,3.10183
2020-03-25,0.0
2020-03-26,0.0
2020-03-27,0.0
2020-03-28,3.10183
2020-03-29,3.10183
2020-03-30,3.10183
2020-03-31,3.10183
2020-04-01,3.10183
2020-04-02,3.10183
2020-04-03,3.10183
2020-04-04,3.10183
2020-04-05,3.10183
2020-04-06,3.10183
2020-04-07,3.10183
2020-04-08,3.10183
2020-04-09,3.10183
2020-04-10,3.10183
2020-04-11,3.10183
2020-04-12,3.10183
2020-04-13,3.10183
2020-04-14,3.10183
2020-04-15,3.10183
2020-04-16,3.10183
2020-04-17,3.10183
2020-04-18,3.10183
2020-04-19,3.10183
2020-04-20,3.10183
2020-04-21,3.10183
2020-04-22,3.10183
2020-04-23,3.10183
2020-04-24,3.10183
2020-04-25,3.10183
2020-04-26,3.10183
2020-04-27,3.10183
2020-04-28,3.10183
2020-04-29,3.10183
2020-04-30,3.10183
2020-05-01,3.10183
2020-05-02,3.10183
2020-05-03,3.10183
2020-05-04,3.10183
2020-05-05,1.54596
2020-05-06,1.54596
2020-05-07,1.54596
2020-05-08,1.54596
2020-05-09,1.54596
2020-05-10,1.54596
2020-05-11,1.54596
2020-05-12,1.54596
2020-05-13,1.54596
2020-05-14,1.54596
2020-05-15,1.54596
2020-05-16,1.54596
2020-05-17,1.54596
2020-05-18,1.54596
2020-05-19,1.54596
2020-05-20,1.54596
2020-05-21,1.54596
2020-05-22,1.54596
2020-05-23,1.54596
2020-05-24,1.54596
2020-05-25,1.54596
2020-05-26,1.54596
2020-05-27,1.54596
2020-05-28,1.54596
2020-05-29,1.54596
2020-05-30,1.54596
2020-05-31,1.54596
2020-06-01,1.54596
2020-06-02,1.54596
2020-06-03,1.54596
2020-06-04,1.54596
2020-06-05,1.54596
2020-06-06,1.54596
2020-06-07,1.54596
2020-06-08,1.54596
2020-06-09,1.54596
2020-06-10,1.54596
2020-06-11,1.54596
2020-06-12,1.54596
2020-06-13,1.54596
2020-06-14,1.54596
2020-06-15,1.54596
2020-06-16,1.54596
2020-06-17,1.54596
2020-06-18,1.54596
2020-06-19,1.54596
2020-06-20,1.54596
2020-06-21,1.54596
2020-06-22,1.54596
2020-06-23,1.54596
2020-06-24,1.54596
2020-06-25,1.54596
2020-06-26,1.54596
2020-06-27,1.54596
2020-06-28,6.20366
2020-06-29,9.35504
2020-06-30,6.20366
2020-07-01,6.20366
2020-07-02,6.20366
2020-07-03,6.20366
2020-07-04,6.20366
2020-07-05,6.20366
2020-07-06,6.20366
2020-07-07,6.20366
2020-07-08,12.39741
2020-07-09,12.39741
2020-07-10,12.39741
2020-07-11,12.39741
2020-07-12,18.60107
2020-07-13,18.60107
2020-07-14,18.60107
2020-07-15,18.60107
2020-07-16,18.60107